Date String (YYYY-MM-DD hh:mm:ss) UTC,Instrument flags,absolute air pressure of the measurement (hPa),sample flow rate (lpm),inlet stack bypass flow (lpm),air temperature of the measurement (°C),ambient temperature measured by the external sensor (°C),aerosol sample conditioner tube jacket temperature (°C),OPC LED temperature (°C),internal box temperature (°C),relative humidity of the measurement (%),span deviation,mass concentration of particles derived from Lorenz-Mie calculation of OPC scattering (μg/m³),mass concentration of particles derived from Lorenz-Mie calculation of OPC scattering (μg/m³),mass concentration of particles derived from Lorenz-Mie calculation of OPC scattering (μg/m³)
DateTimeUTC,F1_M11,P_M11,Q1_M11,Q2_M11,T1_M11,T2_M11,T3_M11,T4_M11,T5_M11,U1_M11,ZSPAN_M11,X0_M11,X2_M11,X1_M11
2024-05-19 17:00:00,SystemResetWarning,0823.9,4.99,000.00,023.9,021.6,000.0,032.6,025.0,032.0,0000.0,0012.15,0003.75,0002.98
2024-05-19 17:01:00,SystemResetWarning,0824.0,4.99,000.00,023.9,022.0,000.0,032.5,025.2,030.8,0000.0,0012.37,0003.75,0002.99
2024-05-19 17:02:00,SystemResetWarning,0823.9,5.00,000.00,023.9,022.4,000.0,032.4,025.4,032.9,0000.0,0012.02,0003.77,0003.00
2024-05-19 17:03:00,SystemResetWarning,0824.0,5.01,000.00,024.0,022.7,000.0,032.3,025.6,033.5,0000.0,0011.42,0003.77,0003.00
2024-05-19 17:04:00,SystemResetWarning,0824.0,5.01,000.00,024.1,023.0,000.0,032.3,025.8,034.3,0000.0,0012.31,0003.78,0003.04
2024-05-19 17:05:00,SystemResetWarning,0824.0,4.99,000.00,024.1,023.2,000.0,032.3,025.9,033.9,0000.0,0011.66,0003.79,0003.07
2024-05-19 17:06:00,SystemResetWarning,0823.9,5.00,000.00,024.2,023.5,000.0,032.3,026.0,032.4,0000.0,0011.63,0003.79,0003.09
2024-05-19 17:07:00,SystemResetWarning,0823.8,5.00,000.00,024.3,023.6,000.0,032.3,026.1,032.3,0000.0,0011.27,0003.80,0003.11
2024-05-19 17:08:00,SystemResetWarning,0823.8,5.00,000.00,024.4,023.8,000.0,032.4,026.2,031.5,0000.0,0011.09,0003.86,0003.13
2024-05-19 17:09:00,SystemResetWarning,0823.8,5.00,000.00,024.4,023.9,000.0,032.4,026.3,031.4,0000.0,0012.44,0003.94,0003.14
2024-05-19 17:10:00,SystemResetWarning,0823.8,5.00,000.00,024.5,024.1,000.0,032.4,026.4,026.9,0000.0,0012.85,0003.98,0003.14
2024-05-19 17:11:00,SystemResetWarning,0823.8,5.00,000.00,024.5,023.4,000.0,032.5,026.0,025.3,0000.0,0012.68,0003.99,0003.15
2024-05-19 17:12:00,SystemResetWarning,0823.8,5.01,000.00,024.2,021.7,000.0,032.6,025.0,030.5,0000.0,0013.17,0004.00,0003.16
2024-05-19 17:13:00,SystemResetWarning,0823.8,5.01,000.00,023.9,021.3,000.0,032.6,024.8,030.1,0000.0,0013.06,0004.01,0003.17
2024-05-19 17:14:00,SystemResetWarning,0823.8,5.01,000.00,023.8,021.7,000.0,032.5,025.0,029.3,0000.0,0013.00,0004.03,0003.19
2024-05-19 17:15:00,SystemResetWarning,0823.8,5.00,000.00,023.8,022.1,000.0,032.4,025.2,029.6,0000.0,0012.30,0004.02,0003.19
2024-05-19 17:16:00,SystemResetWarning,0823.8,5.00,000.00,023.9,022.4,000.0,032.3,025.4,030.9,0000.0,0011.48,0004.01,0003.19
2024-05-19 17:17:00,SystemResetWarning,0823.8,5.00,000.00,024.0,022.7,000.0,032.3,025.6,031.9,0000.0,0011.06,0003.98,0003.18
2024-05-19 17:18:00,SystemResetWarning,0823.8,4.99,000.00,024.0,023.0,000.0,032.3,025.7,033.0,0000.0,0011.00,0003.97,0003.19
2024-05-19 17:19:00,SystemResetWarning,0823.8,4.99,000.00,024.1,023.3,000.0,032.3,025.9,031.7,0000.0,0011.25,0003.95,0003.20
2024-05-19 17:20:00,SystemResetWarning,0823.8,5.00,000.00,024.2,023.5,000.0,032.3,026.0,030.4,0000.0,0010.12,0003.93,0003.19
2024-05-19 17:21:00,SystemResetWarning,0823.8,5.01,000.00,024.2,023.7,000.0,032.3,026.1,028.5,0000.0,0009.73,0003.92,0003.19
2024-05-19 17:22:00,SystemResetWarning,0823.7,5.01,000.00,024.3,023.8,000.0,032.3,026.2,026.5,0000.0,0010.29,0003.95,0003.20
2024-05-19 17:23:00,SystemResetWarning,0823.7,5.01,000.00,024.4,024.0,000.0,032.4,026.3,028.2,0000.0,0009.88,0003.97,0003.21
2024-05-19 17:24:00,SystemResetWarning,0823.8,4.98,000.00,024.5,024.1,000.0,032.4,026.4,032.1,0000.0,0010.82,0003.97,0003.21
2024-05-19 17:25:00,SystemResetWarning,0823.7,4.99,000.00,024.5,023.2,000.0,032.5,025.9,030.1,0000.0,0011.62,0004.00,0003.20
2024-05-19 17:26:00,SystemResetWarning,0823.6,5.00,000.00,024.1,021.6,000.0,032.6,025.0,030.9,0000.0,0011.68,0004.05,0003.21
2024-05-19 17:27:00,SystemResetWarning,0823.6,5.01,000.00,023.9,021.4,000.0,032.6,024.9,034.3,0000.0,0011.78,0004.07,0003.20
2024-05-19 17:28:00,SystemResetWarning,0823.6,5.01,000.00,023.8,021.8,000.0,032.5,025.0,033.1,0000.0,0012.03,0004.08,0003.21
2024-05-19 17:29:00,SystemResetWarning,0823.6,5.00,000.00,023.9,022.2,000.0,032.4,025.3,032.2,0000.0,0012.28,0004.11,0003.22
2024-05-19 17:30:00,SystemResetWarning,0823.6,5.00,000.00,023.9,022.5,000.0,032.3,025.5,031.2,0000.0,0011.86,0004.10,0003.23
2024-05-19 17:31:00,SystemResetWarning,0823.6,5.00,000.00,024.0,022.9,000.0,032.3,025.6,029.9,0000.0,0011.68,0004.11,0003.23
2024-05-19 17:32:00,SystemResetWarning,0823.6,5.00,000.00,024.1,023.1,000.0,032.2,025.8,028.9,0000.0,0011.98,0004.13,0003.24
2024-05-19 17:33:00,SystemResetWarning,0823.6,5.00,000.00,024.1,023.4,000.0,032.3,026.0,028.7,0000.0,0012.10,0004.14,0003.23
2024-05-19 17:34:00,SystemResetWarning,0823.6,5.00,000.00,024.2,023.6,000.0,032.3,026.1,028.5,0000.0,0011.99,0004.12,0003.23
2024-05-19 17:35:00,SystemResetWarning,0823.7,4.99,000.00,024.3,023.7,000.0,032.3,026.2,026.5,0000.0,0011.45,0004.13,0003.25
2024-05-19 17:36:00,SystemResetWarning,0823.8,4.99,000.00,024.4,023.9,000.0,032.3,026.3,025.4,0000.0,0010.88,0004.13,0003.25
2024-05-19 17:37:00,SystemResetWarning,0823.7,5.00,000.00,024.4,024.0,000.0,032.4,026.4,025.9,0000.0,0010.19,0004.07,0003.25
2024-05-19 17:38:00,SystemResetWarning,0823.6,5.00,000.00,024.5,023.7,000.0,032.4,026.2,025.8,0000.0,0010.26,0004.06,0003.26
2024-05-19 17:39:00,SystemResetWarning,0823.6,5.00,000.00,024.2,022.0,000.0,032.5,025.2,025.8,0000.0,0010.89,0004.11,0003.26
2024-05-19 17:40:00,SystemResetWarning,0823.5,5.01,000.00,023.9,021.3,000.0,032.6,024.8,026.6,0000.0,0010.38,0004.09,0003.24
2024-05-19 17:41:00,SystemResetWarning,0823.5,5.02,000.00,023.8,021.7,000.0,032.5,025.0,025.8,0000.0,0010.58,0004.07,0003.23
2024-05-19 17:42:00,SystemResetWarning,0823.6,4.99,000.00,023.8,022.1,000.0,032.4,025.2,025.5,0000.0,0010.38,0004.03,0003.22
2024-05-19 17:43:00,SystemResetWarning,0823.6,5.00,000.00,023.9,022.4,000.0,032.3,025.4,026.5,0000.0,0010.00,0004.00,0003.22
2024-05-19 17:44:00,SystemResetWarning,0823.6,5.00,000.00,024.0,022.8,000.0,032.3,025.6,024.7,0000.0,0010.10,0004.05,0003.24
2024-05-19 17:45:00,SystemResetWarning,0823.5,5.01,000.00,024.0,023.1,000.0,032.2,025.8,024.7,0000.0,0010.27,0004.04,0003.24
2024-05-19 17:46:00,SystemResetWarning,0823.5,5.01,000.00,024.1,023.3,000.0,032.2,025.9,025.6,0000.0,0010.53,0004.03,0003.23
2024-05-19 17:47:00,SystemResetWarning,0823.5,5.00,000.00,024.2,023.5,000.0,032.3,026.0,026.2,0000.0,0010.29,0004.01,0003.22
2024-05-19 17:48:00,SystemResetWarning,0823.5,5.00,000.00,024.3,023.7,000.0,032.3,026.1,025.1,0000.0,0010.80,0004.04,0003.22
2024-05-19 17:49:00,SystemResetWarning,0823.5,5.00,000.00,024.3,023.9,000.0,032.3,026.3,023.9,0000.0,0010.73,0004.02,0003.22
2024-05-19 17:50:00,SystemResetWarning,0823.5,5.00,000.00,024.4,024.0,000.0,032.4,026.3,024.5,0000.0,0010.16,0003.98,0003.22
2024-05-19 17:51:00,SystemResetWarning,0823.5,4.99,000.00,024.4,023.4,000.0,032.5,026.0,023.2,0000.0,0010.48,0003.94,0003.21
2024-05-19 17:52:00,SystemResetWarning,0823.5,5.00,000.00,024.1,021.7,000.0,032.5,025.0,022.7,0000.0,0010.72,0003.92,0003.21
2024-05-19 17:53:00,SystemResetWarning,0823.4,5.02,000.00,023.8,021.3,000.0,032.5,024.8,024.8,0000.0,0010.99,0003.94,0003.20
2024-05-19 17:54:00,SystemResetWarning,0823.4,4.99,000.00,023.8,021.8,000.0,032.4,025.0,024.1,0000.0,0011.25,0003.93,0003.20
2024-05-19 17:55:00,SystemResetWarning,0823.4,4.99,000.00,023.8,022.1,000.0,032.3,025.2,024.2,0000.0,0010.88,0003.90,0003.20
2024-05-19 17:56:00,SystemResetWarning,0823.4,5.01,000.00,023.9,022.5,000.0,032.3,025.4,023.5,0000.0,0010.32,0003.88,0003.20
2024-05-19 17:57:00,SystemResetWarning,0823.4,5.01,000.00,023.9,022.8,000.0,032.2,025.6,023.7,0000.0,0009.87,0003.92,0003.20
2024-05-19 17:58:00,SystemResetWarning,0823.4,4.99,000.00,024.0,023.1,000.0,032.2,025.7,023.0,0000.0,0009.67,0003.94,0003.20
2024-05-19 17:59:00,SystemResetWarning,0823.4,4.99,000.00,024.1,023.3,000.0,032.2,025.9,022.8,0000.0,0009.40,0003.95,0003.21
